SAS602 LSZH-EKCH

Flight info

Callsign SAS602
Flight time 1h 26m
Altitude 38000
Route DEGES Z1 ETAGO DCT HAREM/N0447F370 DCT LOHRE DCT BERXO DCT MAKEL N851 GESKA Z711 MONAK
Aircraft A20N/M-SDE2E3FGHIRWXY/LB1

Departure

Time 2026-05-07 19:23
Airport Zürich Airport (LSZH)

Arrival

Time 2026-05-07 20:50
Airport Copenhagen Kastrup Airport (EKCH)
Time Latitude Longitude Altitude Speed Heading
2026-05-07 18:59 47.46164 8.55684 1402 ft 0 kts 186°
2026-05-07 19:14 47.46165 8.55684 1409 ft 2 kts 186°
2026-05-07 19:14 47.46190 8.55688 1402 ft 4 kts 186°
2026-05-07 19:14 47.46211 8.55691 1401 ft 4 kts 185°
2026-05-07 19:15 47.46233 8.55691 1400 ft 4 kts 140°
2026-05-07 19:15 47.46244 8.55660 1405 ft 4 kts 96°
2026-05-07 19:15 47.46247 8.55627 1403 ft 1 kts 96°
2026-05-07 19:15 47.46247 8.55626 1404 ft 0 kts 96°
2026-05-07 19:18 47.46245 8.55647 1405 ft 5 kts 96°
2026-05-07 19:18 47.46241 8.55700 1402 ft 5 kts 96°
2026-05-07 19:19 47.46238 8.55756 1401 ft 5 kts 96°
2026-05-07 19:19 47.46234 8.55809 1402 ft 6 kts 96°
2026-05-07 19:19 47.46229 8.55878 1403 ft 7 kts 96°
2026-05-07 19:19 47.46223 8.55946 1411 ft 7 kts 104°
2026-05-07 19:20 47.46198 8.56006 1411 ft 7 kts 131°
2026-05-07 19:20 47.46158 8.56063 1412 ft 9 kts 136°
2026-05-07 19:20 47.46107 8.56135 1408 ft 12 kts 136°
2026-05-07 19:20 47.46042 8.56222 1409 ft 14 kts 137°
2026-05-07 19:21 47.46002 8.56305 1411 ft 5 kts 56°
2026-05-07 19:21 47.46026 8.56323 1413 ft 1 kts 15°
2026-05-07 19:21 47.46055 8.56330 1414 ft 8 kts
2026-05-07 19:21 47.46116 8.56340 1413 ft 10 kts
2026-05-07 19:22 47.46193 8.56333 1410 ft 10 kts 346°
2026-05-07 19:22 47.46248 8.56283 1411 ft 8 kts 317°
2026-05-07 19:22 47.46303 8.56209 1408 ft 19 kts 317°
2026-05-07 19:22 47.46563 8.55854 1396 ft 84 kts 317°
2026-05-07 19:23 47.47129 8.55081 1386 ft 135 kts 317°
2026-05-07 19:23 47.47926 8.54018 1482 ft 165 kts 319°
2026-05-07 19:23 47.48763 8.52903 2036 ft 163 kts 319°
2026-05-07 19:23 47.49634 8.51826 2574 ft 163 kts 331°
2026-05-07 19:24 47.50618 8.51010 3111 ft 164 kts 333°
2026-05-07 19:24 47.51665 8.50151 3354 ft 183 kts 332°
2026-05-07 19:24 47.52698 8.48872 3536 ft 207 kts 310°
2026-05-07 19:24 47.53381 8.46933 3858 ft 225 kts 286°
2026-05-07 19:25 47.53493 8.44615 4530 ft 228 kts 262°
2026-05-07 19:25 47.52995 8.42398 5293 ft 228 kts 244°
2026-05-07 19:25 47.52318 8.40289 6104 ft 226 kts 244°
2026-05-07 19:25 47.51527 8.38287 6837 ft 227 kts 225°
2026-05-07 19:26 47.50170 8.37140 7525 ft 229 kts 192°
2026-05-07 19:26 47.48586 8.37282 8187 ft 234 kts 159°
2026-05-07 19:26 47.47286 8.38726 8850 ft 241 kts 127°
2026-05-07 19:26 47.46416 8.40879 9520 ft 246 kts 121°
2026-05-07 19:27 47.45816 8.43276 10144 ft 255 kts 103°
2026-05-07 19:27 47.45698 8.45974 10399 ft 279 kts 91°
2026-05-07 19:27 47.45709 8.48961 10602 ft 302 kts 91°
2026-05-07 19:27 47.45713 8.52187 10764 ft 325 kts 91°
2026-05-07 19:28 47.45719 8.55638 10963 ft 345 kts 90°
2026-05-07 19:28 47.45800 8.59225 11492 ft 352 kts 88°
2026-05-07 19:28 47.45932 8.62830 12111 ft 356 kts 88°
2026-05-07 19:28 47.46090 8.66537 12763 ft 360 kts 87°
2026-05-07 19:29 47.46252 8.70253 13401 ft 364 kts 88°
2026-05-07 19:29 47.46409 8.73954 14010 ft 368 kts 88°
2026-05-07 19:29 47.46560 8.77748 14584 ft 371 kts 88°
2026-05-07 19:29 47.46636 8.81570 15133 ft 374 kts 94°
2026-05-07 19:30 47.46287 8.85385 15689 ft 376 kts 104°
2026-05-07 19:30 47.45725 8.89161 16254 ft 378 kts 104°
2026-05-07 19:30 47.45161 8.92971 16833 ft 380 kts 103°
2026-05-07 19:30 47.44607 8.96807 17411 ft 383 kts 103°
2026-05-07 19:31 47.44058 9.00670 17992 ft 386 kts 103°
2026-05-07 19:31 47.43506 9.04558 18537 ft 389 kts 103°
2026-05-07 19:31 47.42944 9.08481 19049 ft 392 kts 103°
2026-05-07 19:31 47.42376 9.12430 19558 ft 395 kts 102°
2026-05-07 19:32 47.42087 9.16417 20061 ft 399 kts 91°
2026-05-07 19:32 47.42321 9.20507 20569 ft 402 kts 79°
2026-05-07 19:32 47.43088 9.24484 21063 ft 405 kts 68°
2026-05-07 19:32 47.44353 9.28210 21546 ft 407 kts 59°
2026-05-07 19:33 47.45776 9.31845 22036 ft 410 kts 59°
2026-05-07 19:33 47.47348 9.35379 22498 ft 413 kts 50°
2026-05-07 19:33 47.49313 9.38472 22986 ft 414 kts 40°
2026-05-07 19:33 47.51624 9.41009 23445 ft 415 kts 29°
2026-05-07 19:34 47.54211 9.42894 23854 ft 415 kts 18°
2026-05-07 19:34 47.56913 9.44220 24234 ft 416 kts 13°
2026-05-07 19:34 47.59740 9.45087 24618 ft 415 kts
2026-05-07 19:34 47.62620 9.45346 25008 ft 415 kts 359°
2026-05-07 19:35 47.65509 9.45495 25407 ft 416 kts 359°
2026-05-07 19:35 47.68408 9.45649 25795 ft 418 kts 359°
2026-05-07 19:35 47.71316 9.45805 26174 ft 419 kts 359°
2026-05-07 19:35 47.74239 9.45963 26541 ft 421 kts 359°
2026-05-07 19:36 47.77173 9.46123 26899 ft 423 kts 359°
2026-05-07 19:36 47.80104 9.46281 27254 ft 424 kts 359°
2026-05-07 19:36 47.83059 9.46377 27613 ft 426 kts 357°
2026-05-07 19:36 47.85982 9.46387 28013 ft 426 kts 356°
2026-05-07 19:37 47.88953 9.46349 28380 ft 427 kts 356°
2026-05-07 19:37 47.91933 9.46296 28730 ft 429 kts 356°
2026-05-07 19:37 47.94925 9.46252 29075 ft 431 kts 356°
2026-05-07 19:37 47.97928 9.46226 29416 ft 432 kts 356°
2026-05-07 19:38 48.00942 9.46212 29755 ft 434 kts 356°
2026-05-07 19:38 48.03968 9.46207 30086 ft 436 kts 356°
2026-05-07 19:38 48.07002 9.46207 30385 ft 437 kts 357°
2026-05-07 19:38 48.10053 9.46206 30650 ft 439 kts 357°
2026-05-07 19:39 48.13114 9.46204 30893 ft 441 kts 356°
2026-05-07 19:39 48.16149 9.46196 31125 ft 443 kts 356°
2026-05-07 19:39 48.19239 9.46189 31355 ft 445 kts 356°
2026-05-07 19:39 48.22347 9.46188 31578 ft 447 kts 356°
2026-05-07 19:40 48.25465 9.46193 31843 ft 448 kts 356°
2026-05-07 19:40 48.28579 9.46199 32197 ft 447 kts 357°
2026-05-07 19:40 48.31693 9.46206 32510 ft 447 kts 357°
2026-05-07 19:40 48.34803 9.46210 32812 ft 447 kts 356°
2026-05-07 19:41 48.37908 9.46213 33110 ft 447 kts 356°
2026-05-07 19:41 48.40977 9.46213 33414 ft 447 kts 356°
2026-05-07 19:41 48.44084 9.46213 33712 ft 447 kts 356°
2026-05-07 19:41 48.47188 9.46212 34016 ft 447 kts 356°
2026-05-07 19:42 48.50304 9.46216 34277 ft 447 kts 356°
2026-05-07 19:42 48.53400 9.46221 34521 ft 447 kts 356°
2026-05-07 19:42 48.56513 9.46214 34760 ft 448 kts 356°
2026-05-07 19:42 48.59630 9.46185 35004 ft 448 kts 356°
2026-05-07 19:43 48.62748 9.46143 35241 ft 449 kts 356°
2026-05-07 19:43 48.65874 9.46094 35467 ft 449 kts 356°
2026-05-07 19:43 48.68997 9.46047 35695 ft 450 kts 356°
2026-05-07 19:43 48.72128 9.46006 35916 ft 450 kts 356°
2026-05-07 19:44 48.75214 9.45944 36115 ft 450 kts 355°
2026-05-07 19:44 48.78344 9.45816 36316 ft 450 kts 354°
2026-05-07 19:44 48.81478 9.45642 36517 ft 450 kts 354°
2026-05-07 19:44 48.84611 9.45453 36702 ft 451 kts 354°
2026-05-07 19:45 48.87745 9.45266 36904 ft 451 kts 354°
2026-05-07 19:45 48.90889 9.45085 37093 ft 452 kts 354°
2026-05-07 19:45 48.94031 9.44913 37278 ft 452 kts 355°
2026-05-07 19:45 48.97180 9.44751 37459 ft 453 kts 355°
2026-05-07 19:46 49.00287 9.44598 37629 ft 453 kts 355°
2026-05-07 19:46 49.03441 9.44446 37804 ft 454 kts 355°
2026-05-07 19:46 49.06599 9.44293 37995 ft 454 kts 355°
2026-05-07 19:46 49.09762 9.44135 38072 ft 455 kts 355°
2026-05-07 19:47 49.16091 9.43810 38076 ft 455 kts 355°
2026-05-07 19:47 49.22417 9.43488 38074 ft 455 kts 355°
2026-05-07 19:48 49.28704 9.43163 38066 ft 455 kts 355°
2026-05-07 19:48 49.35060 9.42837 38067 ft 455 kts 355°
2026-05-07 19:49 49.41372 9.42511 38078 ft 456 kts 355°
2026-05-07 19:49 49.47719 9.42182 38084 ft 457 kts 355°
2026-05-07 19:50 49.54030 9.41855 38083 ft 457 kts 355°
2026-05-07 19:50 49.60382 9.41520 38095 ft 457 kts 356°
2026-05-07 19:51 49.66745 9.42218 38091 ft 460 kts
2026-05-07 19:51 49.73110 9.43240 38087 ft 460 kts
2026-05-07 19:52 49.79479 9.44256 38090 ft 460 kts
2026-05-07 19:52 49.85849 9.45269 38097 ft 460 kts
2026-05-07 19:53 49.92174 9.46285 38093 ft 460 kts
2026-05-07 19:53 49.98548 9.47316 38095 ft 460 kts
2026-05-07 19:54 50.04921 9.48352 38106 ft 461 kts
2026-05-07 19:54 50.11236 9.50148 38105 ft 463 kts 10°
2026-05-07 19:55 50.17530 9.52262 38101 ft 463 kts
2026-05-07 19:55 50.23783 9.54355 38106 ft 463 kts
2026-05-07 19:56 50.30075 9.56470 38118 ft 463 kts 10°
2026-05-07 19:56 50.36370 9.58592 38115 ft 462 kts 10°
2026-05-07 19:57 50.42615 9.60709 38113 ft 462 kts 10°
2026-05-07 19:57 50.48904 9.62837 38133 ft 462 kts 10°
2026-05-07 19:58 50.55190 9.64965 38126 ft 462 kts 10°
2026-05-07 19:58 50.61477 9.67106 38130 ft 462 kts 10°
2026-05-07 19:59 50.67760 9.69255 38134 ft 462 kts 10°
2026-05-07 19:59 50.73996 9.71395 38133 ft 462 kts 10°
2026-05-07 20:00 50.80274 9.73556 38134 ft 462 kts 10°
2026-05-07 20:00 50.86555 9.75713 38135 ft 462 kts 10°
2026-05-07 20:01 50.92837 9.77871 38143 ft 462 kts 10°
2026-05-07 20:01 50.99077 9.80036 38135 ft 462 kts 10°
2026-05-07 20:02 51.05357 9.82228 38135 ft 462 kts 10°
2026-05-07 20:02 51.11635 9.84418 38135 ft 462 kts 10°
2026-05-07 20:03 51.17911 9.86606 38140 ft 462 kts 10°
2026-05-07 20:03 51.24105 9.89075 38130 ft 463 kts 17°
2026-05-07 20:04 51.30191 9.92439 38134 ft 463 kts 17°
2026-05-07 20:04 51.36279 9.95818 38133 ft 463 kts 17°
2026-05-07 20:05 51.42373 9.99189 38140 ft 463 kts 17°
2026-05-07 20:05 51.48422 10.02548 38135 ft 463 kts 17°
2026-05-07 20:06 51.54506 10.05939 38124 ft 463 kts 17°
2026-05-07 20:06 51.60591 10.09347 38129 ft 463 kts 17°
2026-05-07 20:07 51.66673 10.12753 38128 ft 463 kts 17°
2026-05-07 20:07 51.71733 10.15584 38128 ft 463 kts 18°
2026-05-07 20:08 51.78800 10.19564 38127 ft 463 kts 18°
2026-05-07 20:08 51.84879 10.23006 38140 ft 463 kts 18°
2026-05-07 20:09 51.89921 10.25875 38133 ft 462 kts 18°
2026-05-07 20:10 51.99026 10.31044 38127 ft 462 kts 18°
2026-05-07 20:10 52.06080 10.35073 38130 ft 463 kts 18°
2026-05-07 20:11 52.11168 10.37983 38143 ft 463 kts 18°
2026-05-07 20:11 52.18219 10.42040 38148 ft 462 kts 18°
2026-05-07 20:12 52.23258 10.44946 38156 ft 462 kts 18°
2026-05-07 20:12 52.29325 10.48448 38153 ft 463 kts 18°
2026-05-07 20:13 52.35398 10.51961 38156 ft 463 kts 18°
2026-05-07 20:13 52.41470 10.55484 38157 ft 463 kts 18°
2026-05-07 20:14 52.47537 10.59011 38152 ft 463 kts 18°
2026-05-07 20:14 52.53563 10.62537 38348 ft 462 kts 18°
2026-05-07 20:14 52.56593 10.64314 38550 ft 462 kts 18°
2026-05-07 20:15 52.59622 10.66090 38719 ft 462 kts 18°
2026-05-07 20:15 52.62652 10.67871 38853 ft 463 kts 18°
2026-05-07 20:15 52.65685 10.69658 38984 ft 463 kts 18°
2026-05-07 20:15 52.68714 10.71444 39088 ft 463 kts 18°
2026-05-07 20:16 52.71752 10.73235 39117 ft 464 kts 18°
2026-05-07 20:16 52.77826 10.76824 39116 ft 464 kts 18°
2026-05-07 20:17 52.83864 10.80411 39114 ft 464 kts 18°
2026-05-07 20:17 52.89938 10.84020 39117 ft 464 kts 18°
2026-05-07 20:18 52.96020 10.87646 39121 ft 464 kts 18°
2026-05-07 20:18 53.02094 10.91283 39124 ft 464 kts 18°
2026-05-07 20:19 53.08180 10.94919 39131 ft 465 kts 18°
2026-05-07 20:19 53.14218 10.98553 39134 ft 465 kts 19°
2026-05-07 20:20 53.20302 11.02232 39136 ft 465 kts 19°
2026-05-07 20:20 53.26383 11.05917 39144 ft 465 kts 19°
2026-05-07 20:21 53.32468 11.09624 39143 ft 465 kts 19°
2026-05-07 20:21 53.38559 11.13338 39148 ft 465 kts 19°
2026-05-07 20:22 53.44603 11.17018 39150 ft 466 kts 19°
2026-05-07 20:22 53.50688 11.20742 39156 ft 466 kts 19°
2026-05-07 20:23 53.56776 11.24486 39154 ft 466 kts 19°
2026-05-07 20:23 53.62860 11.28248 39155 ft 466 kts 19°
2026-05-07 20:24 53.68942 11.32008 39158 ft 466 kts 19°
2026-05-07 20:24 53.74981 11.35756 38915 ft 464 kts 19°
2026-05-07 20:24 53.78008 11.37639 38668 ft 463 kts 19°
2026-05-07 20:25 53.81025 11.39518 38386 ft 462 kts 19°
2026-05-07 20:25 53.84038 11.41395 38110 ft 461 kts 19°
2026-05-07 20:25 53.87047 11.43273 37837 ft 460 kts 19°
2026-05-07 20:25 53.90050 11.45154 37567 ft 459 kts 20°
2026-05-07 20:26 53.93043 11.47033 37302 ft 459 kts 20°
2026-05-07 20:26 53.96034 11.48913 37043 ft 457 kts 20°
2026-05-07 20:26 53.99003 11.50783 36551 ft 454 kts 20°
2026-05-07 20:26 54.01968 11.52647 35955 ft 453 kts 20°
2026-05-07 20:27 54.04883 11.54480 35238 ft 454 kts 21°
2026-05-07 20:27 54.07839 11.56345 34441 ft 454 kts 21°
2026-05-07 20:27 54.10809 11.58225 33495 ft 456 kts 21°
2026-05-07 20:27 54.13780 11.60106 32638 ft 455 kts 21°
2026-05-07 20:28 54.16757 11.61991 31688 ft 457 kts 20°
2026-05-07 20:28 54.19736 11.63884 30812 ft 457 kts 21°
2026-05-07 20:28 54.22703 11.65775 30217 ft 451 kts 21°
2026-05-07 20:28 54.25626 11.67637 29582 ft 446 kts 21°
2026-05-07 20:29 54.28472 11.69451 29019 ft 439 kts 21°
2026-05-07 20:29 54.31315 11.71268 28434 ft 434 kts 20°
2026-05-07 20:29 54.34127 11.73067 27859 ft 428 kts 21°
2026-05-07 20:29 54.36905 11.74849 27290 ft 424 kts 21°
2026-05-07 20:30 54.39653 11.76614 26735 ft 420 kts 21°
2026-05-07 20:30 54.42374 11.78367 26177 ft 416 kts 20°
2026-05-07 20:30 54.45070 11.80114 25619 ft 413 kts 21°
2026-05-07 20:30 54.47717 11.81980 25070 ft 409 kts 24°
2026-05-07 20:31 54.50311 11.83974 24527 ft 407 kts 25°
2026-05-07 20:31 54.52831 11.86007 24004 ft 405 kts 25°
2026-05-07 20:31 54.55366 11.88092 23439 ft 403 kts 25°
2026-05-07 20:31 54.57886 11.90159 22925 ft 399 kts 25°
2026-05-07 20:32 54.60391 11.92184 22434 ft 396 kts 25°
2026-05-07 20:32 54.62791 11.94461 21960 ft 393 kts 33°
2026-05-07 20:32 54.65057 11.97077 21498 ft 391 kts 33°
2026-05-07 20:32 54.67311 11.99674 21041 ft 388 kts 33°
2026-05-07 20:33 54.69547 12.02250 20578 ft 385 kts 33°
2026-05-07 20:33 54.71737 12.04777 20118 ft 383 kts 33°
2026-05-07 20:33 54.73949 12.07330 19646 ft 380 kts 33°
2026-05-07 20:33 54.76143 12.09867 19155 ft 379 kts 33°
2026-05-07 20:34 54.78324 12.12396 18674 ft 376 kts 33°
2026-05-07 20:34 54.80496 12.14921 18131 ft 375 kts 33°
2026-05-07 20:34 54.82651 12.17431 17623 ft 371 kts 33°
2026-05-07 20:34 54.84783 12.19915 17115 ft 368 kts 33°
2026-05-07 20:35 54.86900 12.22386 16610 ft 365 kts 33°
2026-05-07 20:35 54.88970 12.24805 16110 ft 362 kts 33°
2026-05-07 20:35 54.91052 12.27242 15595 ft 360 kts 34°
2026-05-07 20:35 54.93119 12.29669 15084 ft 358 kts 34°
2026-05-07 20:36 54.95176 12.32084 14573 ft 355 kts 34°
2026-05-07 20:36 54.97219 12.34484 14064 ft 353 kts 34°
2026-05-07 20:36 54.99251 12.36873 13515 ft 351 kts 34°
2026-05-07 20:36 55.01269 12.39241 13007 ft 348 kts 34°
2026-05-07 20:37 55.03271 12.41575 12498 ft 345 kts 34°
2026-05-07 20:37 55.05258 12.43881 11991 ft 342 kts 34°
2026-05-07 20:37 55.07206 12.46147 11498 ft 339 kts 34°
2026-05-07 20:37 55.09159 12.48428 10985 ft 337 kts 34°
2026-05-07 20:38 55.11091 12.50691 10663 ft 330 kts 34°
2026-05-07 20:38 55.12958 12.52884 10537 ft 317 kts 34°
2026-05-07 20:38 55.14754 12.54991 10415 ft 305 kts 35°
2026-05-07 20:38 55.16486 12.57025 10283 ft 295 kts 35°
2026-05-07 20:39 55.18163 12.59001 10099 ft 288 kts 35°
2026-05-07 20:39 55.19803 12.60938 9899 ft 283 kts 35°
2026-05-07 20:39 55.21432 12.62865 9537 ft 282 kts 35°
2026-05-07 20:39 55.23038 12.64751 9176 ft 281 kts 33°
2026-05-07 20:40 55.24741 12.66418 8879 ft 279 kts 30°
2026-05-07 20:40 55.26439 12.68045 8596 ft 277 kts 30°
2026-05-07 20:40 55.28120 12.69670 8291 ft 275 kts 30°
2026-05-07 20:40 55.29793 12.71292 8009 ft 274 kts 30°
2026-05-07 20:41 55.31456 12.72908 7715 ft 273 kts 30°
2026-05-07 20:41 55.33179 12.74270 7438 ft 272 kts 14°
2026-05-07 20:41 55.35053 12.74378 7152 ft 272 kts 349°
2026-05-07 20:41 55.36789 12.73106 6843 ft 272 kts 324°
2026-05-07 20:42 55.38089 12.70782 6535 ft 272 kts 309°
2026-05-07 20:42 55.39258 12.68180 6210 ft 270 kts 309°
2026-05-07 20:42 55.40417 12.65593 5904 ft 268 kts 309°
2026-05-07 20:42 55.41500 12.62945 5587 ft 267 kts 298°
2026-05-07 20:43 55.42024 12.59820 5200 ft 271 kts 275°
2026-05-07 20:43 55.41802 12.56523 4731 ft 276 kts 252°
2026-05-07 20:43 55.40860 12.53658 4442 ft 264 kts 232°
2026-05-07 20:43 55.39951 12.51074 4243 ft 244 kts 257°
2026-05-07 20:44 55.40024 12.48235 4010 ft 232 kts 294°
2026-05-07 20:44 55.40965 12.45958 3618 ft 230 kts 321°
2026-05-07 20:44 55.42309 12.44529 3300 ft 225 kts 338°
2026-05-07 20:44 55.43740 12.43448 3021 ft 220 kts 337°
2026-05-07 20:45 55.45105 12.42386 2922 ft 209 kts 339°
2026-05-07 20:45 55.46485 12.41973 2815 ft 198 kts
2026-05-07 20:45 55.47750 12.42749 2698 ft 190 kts 33°
2026-05-07 20:45 55.48738 12.44214 2511 ft 182 kts 40°
2026-05-07 20:46 55.49668 12.45653 2336 ft 171 kts 40°
2026-05-07 20:46 55.50506 12.46944 2255 ft 155 kts 40°
2026-05-07 20:46 55.51296 12.48157 2105 ft 148 kts 40°
2026-05-07 20:46 55.52063 12.49335 1920 ft 144 kts 40°
2026-05-07 20:47 55.52819 12.50496 1739 ft 144 kts 40°
2026-05-07 20:47 55.53571 12.51652 1560 ft 141 kts 40°
2026-05-07 20:47 55.54308 12.52785 1367 ft 140 kts 40°
2026-05-07 20:47 55.55040 12.53910 1161 ft 139 kts 40°
2026-05-07 20:48 55.55769 12.55033 962 ft 139 kts 40°
2026-05-07 20:48 55.56496 12.56153 770 ft 138 kts 40°
2026-05-07 20:48 55.57222 12.57271 579 ft 138 kts 40°
2026-05-07 20:48 55.57932 12.58367 399 ft 137 kts 40°
2026-05-07 20:49 55.58648 12.59470 217 ft 136 kts 40°
2026-05-07 20:49 55.59356 12.60563 40 ft 135 kts 40°
2026-05-07 20:49 55.59987 12.61535 19 ft 98 kts 40°
2026-05-07 20:49 55.60371 12.62130 17 ft 51 kts 39°
2026-05-07 20:50 55.60576 12.62315 19 ft 25 kts 14°
2026-05-07 20:50 55.60732 12.62380 17 ft 22 kts 15°
2026-05-07 20:50 55.60845 12.62486 17 ft 17 kts 39°
2026-05-07 20:50 55.60941 12.62635 17 ft 20 kts 42°
2026-05-07 20:51 55.61050 12.62805 17 ft 22 kts 41°
2026-05-07 20:51 55.61164 12.62982 17 ft 22 kts 41°
2026-05-07 20:51 55.61287 12.63172 17 ft 24 kts 41°
2026-05-07 20:51 55.61414 12.63367 17 ft 21 kts 41°
2026-05-07 20:52 55.61532 12.63551 18 ft 24 kts 41°
2026-05-07 20:52 55.61654 12.63740 17 ft 18 kts 41°
2026-05-07 20:52 55.61756 12.63898 18 ft 20 kts 41°
2026-05-07 20:52 55.61850 12.64041 17 ft 16 kts 36°
2026-05-07 20:53 55.61925 12.64169 17 ft 14 kts 54°
2026-05-07 20:53 55.62010 12.64196 17 ft 14 kts 11°
2026-05-07 20:53 55.62105 12.64268 17 ft 16 kts 25°
2026-05-07 20:53 55.62200 12.64347 15 ft 17 kts 25°
2026-05-07 20:54 55.62300 12.64410 18 ft 15 kts 15°
2026-05-07 20:54 55.62403 12.64459 17 ft 17 kts 14°
2026-05-07 20:54 55.62455 12.64570 17 ft 14 kts 103°
2026-05-07 20:54 55.62410 12.64713 17 ft 13 kts 125°
2026-05-07 20:55 55.62356 12.64854 17 ft 15 kts 122°
2026-05-07 20:55 55.62297 12.65012 17 ft 14 kts 123°
2026-05-07 20:55 55.62284 12.65142 17 ft 12 kts 67°
2026-05-07 20:55 55.62365 12.65203 17 ft 15 kts 359°
2026-05-07 20:56 55.62443 12.65202 17 ft 11 kts 359°
2026-05-07 20:56 55.62528 12.65197 17 ft 12 kts 358°
2026-05-07 20:56 55.62612 12.65195 18 ft 9 kts 358°
2026-05-07 20:56 55.62652 12.65191 17 ft 0 kts 357°
2026-05-07 20:57 55.62663 12.65190 17 ft 3 kts 356°
2026-05-07 20:57 55.62687 12.65187 17 ft 2 kts 356°
2026-05-07 20:57 55.62704 12.65185 17 ft 0 kts 356°
2026-05-07 20:57 55.62712 12.65184 17 ft 0 kts 356°
2026-05-07 20:58 55.62720 12.65184 17 ft 1 kts 356°
2026-05-07 20:58 55.62726 12.65183 19 ft 1 kts 356°
2026-05-07 20:58 55.62729 12.65183 18 ft 0 kts 356°
2026-05-07 20:58 55.62730 12.65182 18 ft 0 kts 356°